sat.trackr.live / text

‹ back to catalog

STARLINK-37471

NORAD 68802 · 2026-089A

PAYLOAD ACTIVE UNKNOWN

§ Identity

Operator
Country
US
Launch date
2026-04-23
Launch site
AFWTR
Launch vehicle
Mass (kg)
RCS (m²)

Purposes: comms

External: N2YO · Heavens-Above · Gunter

§ Orbital elements

Epoch: 2026-05-25T02:56:23.451360Z

Period
91.42 min
Inclination
97.2845°
Eccentricity
0.0001661
Mean motion
15.75188231 rev/d
Perigee alt
343.0 km
Apogee alt
345.2 km
Semi-major
6,722.2 km
B*
1.2376e-3
RAAN
351.7499°
Arg perigee
64.9835°
Mean anomaly
295.1602°
Rev number
506

§ Raw data

STARLINK-374711 68802U 26089A   26145.12249365  .00188591  00000+0  12376-2 0  99912 68802  97.2845 351.7499 0001661  64.9835 295.1602 15.75188231  5065

JSON: /api/v1/satellites/68802 · /tle

For live sub-satellite position, see the globe view (requires WebGL).

§ Visibility from observer

Set your observer location to see the next 7 days of passes ≥ 10°. The values pass through the URL so the page stays shareable.

No JS? Fill the form by hand. The geolocation button needs JavaScript.